Weather History for KTVL - October, 2012

Change the Weather History Date:

Saturday, October 20, 2012

  Actual Average Record
Temperature  
Mean Temperature 51 °F 44 °F  
Max Temperature 63 °F 61 °F 75 °F (2003)
Min Temperature 39 °F 27 °F 17 °F (1996)
Degree Days  
Heating Degree Days 14 21  
Month to date heating degree days 294 360  
Since 1 July heating degree days 713 986  
Cooling Degree Days 0 0  
Month to date cooling degree days 0 0  
Year to date cooling degree days 30 31  
Growing Degree Days 2 (Base 50)    
Moisture  
Dew Point 27 °F    
Average Humidity 45    
Maximum Humidity 71    
Minimum Humidity 19    
Precipitation  
Precipitation 0.00 in - 1.26 in (1979)
Month to date precipitation 0.29  
Year to date precipitation 11.35  
Sea Level Pressure  
Sea Level Pressure 29.85 in    
Wind  
Wind Speed 5 mph (SSW)    
Max Wind Speed 21 mph    
Max Gust Speed 32 mph    
Visibility 10 miles    
Events Rain    
T = Trace of Precipitation, MM = Missing Value Source: NWS Daily Summary

Daily Weather History Graph

Daily Weather History Graph

Search for Another Location

Airport or City:

Trip Planner

Search our weather history database for the weather conditions in past years. The results will help you decide how hot, cold, wet, or windy it might be!

Date:

Astronomy

Oct. 20, 2012 Rise Set
Actual Time 7:15 AM PDT 6:13 PM PDT
Civil Twilight 6:47 AM PDT 6:40 PM PDT
Nautical Twilight 6:16 AM PDT 7:11 PM PDT
Astronomical Twilight 5:46 AM PDT 7:42 PM PDT
Moon 12:53 PM PDT (10/20) 11:06 PM PDT (10/20)
Length of Visible Light 11h 52m
Length of Day
10h 58m
Waxing Crescent, 35% of the Moon is Illuminated
Oct 20
Waxing Crescent
Oct 21
First Quarter
Oct 29
Full
Nov 6
Last Quarter
Nov 13
New

Hourly Weather History & Observations

Time (PDT) Temp. Windchill Dew Point Humidity Pressure Visibility Wind Dir Wind Speed Gust Speed Precip Events Conditions
12:53 AM 50.0 °F - 24.1 °F 36% 29.93 in 10.0 mi SW 3.5 mph - N/A   Clear
1:53 AM 44.1 °F - 24.1 °F 45% 29.94 in 10.0 mi Calm Calm - N/A   Clear
2:53 AM 46.9 °F - 24.1 °F 41% 29.92 in 10.0 mi South 5.8 mph - N/A   Clear
3:53 AM 42.1 °F 38.4 °F 25.0 °F 51% 29.91 in 10.0 mi SSW 5.8 mph - N/A   Clear
4:53 AM 44.1 °F 42.5 °F 24.1 °F 45% 29.91 in 10.0 mi SSW 3.5 mph - N/A   Partly Cloudy
5:53 AM 45.0 °F - 24.1 °F 44% 29.90 in 10.0 mi Calm Calm - N/A   Clear
6:53 AM 46.9 °F - 23.0 °F 39% 29.91 in 10.0 mi SSW 3.5 mph - N/A   Mostly Cloudy
7:53 AM 45.0 °F 43.5 °F 23.0 °F 42% 29.91 in 10.0 mi SSW 3.5 mph - N/A   Clear
8:53 AM 55.0 °F - 26.1 °F 33% 29.87 in 10.0 mi SSE 6.9 mph - N/A   Clear
9:53 AM 60.1 °F - 25.0 °F 26% 29.86 in 10.0 mi South 11.5 mph 20.7 mph N/A   Clear
10:53 AM 62.1 °F - 19.9 °F 20% 29.85 in 10.0 mi SSW 15.0 mph 23.0 mph N/A   Clear
11:53 AM 63.0 °F - 24.1 °F 23% 29.84 in 10.0 mi SSW 10.4 mph 21.9 mph N/A   Clear
12:53 PM 62.1 °F - 19.9 °F 20% 29.83 in 10.0 mi SW 9.2 mph 23.0 mph N/A   Clear
1:53 PM 62.1 °F - 26.1 °F 25% 29.81 in 10.0 mi South 16.1 mph 25.3 mph N/A   Clear
2:53 PM 62.1 °F - 26.1 °F 25% 29.78 in 10.0 mi SSW 12.7 mph 32.2 mph N/A   Clear
3:53 PM 60.1 °F - 28.9 °F 31% 29.80 in 10.0 mi Variable 6.9 mph 19.6 mph N/A   Clear
4:53 PM 57.9 °F - 32.0 °F 37% 29.81 in 10.0 mi SSW 6.9 mph 16.1 mph N/A   Clear
5:53 PM 55.0 °F - 32.0 °F 42% 29.81 in 10.0 mi SSW 6.9 mph - N/A   Clear
6:53 PM 52.0 °F - 35.1 °F 53% 29.80 in 10.0 mi Variable 6.9 mph - N/A   Clear
7:53 PM 48.9 °F - 37.0 °F 64% 29.82 in 10.0 mi South 4.6 mph - N/A   Clear
8:53 PM 46.9 °F - 37.0 °F 68% 29.80 in 10.0 mi SSW 4.6 mph - N/A   Clear
9:53 PM 45.0 °F 40.6 °F 36.0 °F 71% 29.79 in 10.0 mi SSW 8.1 mph - N/A   Clear
10:53 PM 45.0 °F 42.6 °F 32.0 °F 60% 29.80 in 10.0 mi South 4.6 mph - N/A   Clear
11:53 PM 43.0 °F - 28.9 °F 58% 29.80 in 10.0 mi Calm Calm - 0.00 in Rain Light Rain